www.pogodaiklimat.ru

Погода и климат >> Архив погоды >> Япония >> Ирако


ПОГОДА в Ирако

  • Прогноз погоды в Ирако
  • Монитор погоды в Ирако

АРХИВ ПОГОДЫ в Ирако

Время (UTC), дата Ветер
(напр.,м/с)
 
Видим.   Явления Облачность Т
(С)
Тd
(С)
f
(%)
Тe
(С)
Тes
(С)
Комфортность P
(гПа)
Po
(гПа)
Тmin
(С)
Tmax
(С)
R
(мм)
R24
(мм)
S
(см)
06 19.08 ЮВ 4 8000 м дымка н/о +30.6 +26.8 80 +48 +48 опасность
перегрева
1009.8 1008.9
09 19.08 Ю 3 8000 м дымка н/о +28.5 +26.1 87 +43 +43 опасность
перегрева
1011.0 1010.1
10 19.08 ЮЗ 3 12 км н/о +28.2 +24.6 81 +40 +40 очень
душно
1011.8 1010.9
11 19.08 В 2 3300 м дождь н/о +26.4 +25.5 95 +39 +39 очень
душно
1010.8 1009.9
12 19.08 ЮВ 2 4800 м в посл. час дождь н/о +25.8 +25.3 97 +37 +37 очень
душно
1010.9 1010.0 +32.7 4
13 19.08 ЮЗ 1 3000 м дымка н/о +25.9 +25.6 98 +38 +38 очень
душно
1011.2 1010.3
14 19.08 В 1 4100 м дымка н/о +25.5 +25.2 98 +37 +37 очень
душно
1011.3 1010.4
15 19.08 В 1 4700 м дымка н/о +25.6 +25.4 99 +37 +37 очень
душно
1011.3 1010.4
16 19.08 ЮВ 1 3000 м дымка н/о +25.8 +25.6 99 +38 +38 очень
душно
1011.1 1010.2
17 19.08 ЮВ 1 3900 м дымка н/о +25.9 +25.7 99 +38 +38 очень
душно
1011.0 1010.1
18 19.08 ЮВ 1 6000 м дымка н/о +25.9 +25.6 98 +38 +38 очень
душно
1010.9 1010.0
19 19.08 ЮВ 1 4600 м дымка н/о +25.8 +25.6 99 +38 +38 очень
душно
1011.0 1010.1
20 19.08 В 1 6000 м дымка н/о +25.3 +24.8 97 +36 +36 очень
душно
1010.9 1010.0
21 19.08 В 1 4500 м дымка н/о +26.3 +25.6 96 +39 +39 очень
душно
1011.0 1010.1
22 19.08 В 1 5000 м дымка н/о +27.7 +26.7 94 +43 +43 опасность
перегрева
1011.0 1010.1
23 19.08 В 2 2900 м сильн. дождь н/о +27.1 +26.1 94 +41 +41 опасность
перегрева
1011.1 1010.2
00 20.08 ЮВ 2 4400 м слаб. дождь н/о +27.3 +25.7 91 +40 +40 очень
душно
1011.4 1010.5 +25.3 8
01 20.08 ЮВ 2 17 км в посл. час дождь н/о +29.0 +27.0 89 +46 +46 опасность
перегрева
1011.1 1010.2
02 20.08 СЗ 2 400 м туман н/о +29.0 +26.2 85 +44 +44 опасность
перегрева
1011.0 1010.1
03 20.08 З 1 400 м туман {дождь} н/о +29.2 +26.2 84 +44 +44 опасность
перегрева
1010.4 1009.5
04 20.08 Ю 2 н/о н/о +30.7 +27.3 82 +49 +49 опасность
перегрева
1010.0 1009.1
05 20.08 Ю 3 н/о н/о +31.4 +27.1 78 +49 +49 опасность
перегрева
1009.4 1008.5
06 20.08 Ю 4 н/о н/о +30.2 +27.2 84 +48 +48 опасность
перегрева
1009.4 1008.5 0.0
07 20.08 Ю 4 н/о н/о +30.3 +27.5 85 +49 +49 опасность
перегрева
1009.7 1008.8
08 20.08 Ю 3 20 км н/о +29.3 +27.3 89 +47 +47 опасность
перегрева
1009.4 1008.5
09 20.08 Ю 2 20 км н/о +29.1 +26.9 88 +46 +46 опасность
перегрева
1009.3 1008.4
10 20.08 Ю 1 14 км н/о +28.2 +26.8 92 +44 +44 опасность
перегрева
1009.6 1008.7
11 20.08 Ю 1 14 км н/о +27.8 +26.9 95 +44 +44 опасность
перегрева
1009.9 1009.0
12 20.08 ЮЗ 2 14 км н/о +27.8 +26.9 95 +44 +44 опасность
перегрева
1010.1 1009.2 +32.2 0.0
13 20.08 ЮВ 1 12 км н/о +27.6 +26.7 95 +43 +43 опасность
перегрева
1010.0 1009.1
14 20.08 Ю 1 13 км н/о +27.0 +26.3 96 +41 +41 опасность
перегрева
1009.9 1009.0
15 20.08 СЗ 1 9000 м дымка н/о +27.1 +26.6 97 +42 +42 опасность
перегрева
1009.5 1008.6
16 20.08 СВ 1 10 км н/о +26.9 +26.6 98 +41 +41 опасность
перегрева
1009.3 1008.4
17 20.08 С 2 4400 м дымка н/о +27.6 +26.9 96 +43 +43 опасность
перегрева
1009.1 1008.2
18 20.08 З 1 3300 м дымка н/о +27.1 +26.9 99 +42 +42 опасность
перегрева
1008.9 1008.0
20 20.08 С 2 5000 м дымка н/о +27.0 +26.3 96 +41 +41 опасность
перегрева
1009.5 1008.6
22 20.08 С 2 11 км н/о +28.5 +26.9 91 +45 +45 опасность
перегрева
1010.0 1009.1
23 20.08 С 3 14 км н/о +29.8 +26.6 83 +46 +46 опасность
перегрева
1010.4 1009.5
00 21.08 С 3 20 км н/о +30.7 +25.8 75 +46 +46 опасность
перегрева
1010.2 1009.3 +26.7
01 21.08 С 3 16 км н/о +31.2 +25.6 72 +46 +46 опасность
перегрева
1010.1 1009.2
02 21.08 З 3 20 км н/о +32.7 +25.0 64 +46 +46 опасность
перегрева
1010.1 1009.2
03 21.08 З 3 20 км н/о +32.9 +24.9 63 +46 +46 опасность
перегрева
1009.5 1008.6
05 21.08 ЮЗ 3 20 км н/о +30.5 +26.7 80 +47 +47 опасность
перегрева
1009.2 1008.3
06 21.08 Ю 3 20 км слаб. дождь н/о +30.1 +26.3 80 +46 +46 опасность
перегрева
1008.5 1007.6
07 21.08 Ю 4 20 км в посл. час дождь н/о +30.6 +26.3 78 +47 +47 опасность
перегрева
1008.3 1007.4
09 21.08 Ю 3 19 км {дождь, осадки} н/о +29.4 +26.6 85 +45 +45 опасность
перегрева
1008.5 1007.6
10 21.08 Ю 2 20 км н/о +29.0 +26.6 87 +45 +45 опасность
перегрева
1008.8 1007.9
11 21.08 Ю 2 12 км н/о +28.8 +27.0 90 +45 +45 опасность
перегрева
1009.5 1008.6
12 21.08 Ю 2 14 км {дождь, осадки} н/о +28.8 +26.8 89 +45 +45 опасность
перегрева
1009.9 1009.0 +34.4 0.0
13 21.08 З 3 20 км н/о +30.0 +25.3 76 +44 +44 опасность
перегрева
1009.8 1008.9
15 21.08 С 4 20 км н/о +28.4 +25.0 82 +41 +41 опасность
перегрева
1009.6 1008.7
16 21.08 С 3 20 км н/о +28.0 +24.8 83 +40 +40 очень
душно
1009.3 1008.4
17 21.08 С 2 20 км н/о +27.8 +25.1 85 +40 +40 очень
душно
1009.1 1008.2
18 21.08 С 2 20 км н/о +27.6 +24.9 85 +39 +39 очень
душно
1009.1 1008.2
19 21.08 З 1 20 км н/о +26.6 +24.6 89 +38 +38 очень
душно
1009.1 1008.2
20 21.08 ЮВ 2 20 км н/о +26.3 +25.1 93 +38 +38 очень
душно
1009.2 1008.3
22 21.08 З 3 20 км н/о +28.8 +25.6 83 +43 +43 опасность
перегрева
1010.0 1009.1
23 21.08 СЗ 3 20 км н/о +29.7 +25.2 77 +43 +43 опасность
перегрева
1010.3 1009.4
00 22.08 З 3 20 км н/о +30.8 +25.4 73 +45 +45 опасность
перегрева
1010.5 1009.6 +25.9
01 22.08 З 3 20 км н/о +31.6 +25.2 69 +46 +46 опасность
перегрева
1010.4 1009.5
02 22.08 З 3 20 км н/о +32.4 +25.0 65 +46 +46 опасность
перегрева
1009.9 1009.0
04 22.08 З 2 20 км н/о +33.0 +23.9 59 +45 +45 опасность
перегрева
1008.8 1007.9
05 22.08 Ю 5 20 км н/о +31.9 +26.2 72 +48 +48 опасность
перегрева
1008.7 1007.8
06 22.08 Ю 5 20 км н/о +32.7 +26.0 68 +48 +48 опасность
перегрева
1008.4 1007.5
07 22.08 Ю 4 20 км слаб. дождь н/о +31.7 +25.3 69 +46 +46 опасность
перегрева
1008.2 1007.3
08 22.08 Ю 4 20 км в посл. час дождь н/о +30.8 +24.7 70 +44 +44 опасность
перегрева
1008.2 1007.3
09 22.08 Ю 5 20 км {дождь} н/о +29.1 +26.1 84 +44 +44 опасность
перегрева
1008.1 1007.2
11 22.08 Ю 5 20 км н/о +28.1 +25.7 87 +42 +42 опасность
перегрева
1008.5 1007.6
12 22.08 Ю 5 20 км {дождь} н/о +28.0 +25.6 87 +41 +41 опасность
перегрева
1008.6 1007.7 +34.4 0.0
13 22.08 Ю 4 20 км н/о +27.9 +25.7 88 +41 +41 опасность
перегрева
1008.6 1007.7
14 22.08 Ю 3 20 км н/о +27.9 +24.8 83 +40 +40 очень
душно
1008.3 1007.4
15 22.08 ЮЗ 3 20 км н/о +27.9 +24.8 83 +40 +40 очень
душно
1008.0 1007.1
16 22.08 Ю 4 20 км н/о +27.7 +25.0 85 +40 +40 очень
душно
1007.9 1007.0
17 22.08 Ю 3 20 км слаб. дождь н/о +27.5 +25.9 91 +41 +41 опасность
перегрева
1007.1 1006.2
18 22.08 Ю 3 10 км слаб. дождь н/о +27.6 +26.0 91 +41 +41 опасность
перегрева
1006.4 1005.5 0.0
19 22.08 Ю 3 20 км слаб. дождь н/о +27.5 +26.1 92 +41 +41 опасность
перегрева
1006.5 1005.6
20 22.08 З 3 12 км слаб. дождь н/о +26.5 +25.8 96 +39 +39 очень
душно
1006.7 1005.8
21 22.08 Ю 2 3200 м слаб. дождь н/о +26.1 +25.9 99 +39 +39 очень
душно
1007.0 1006.1
22 22.08 ЮЗ 3 10 км слаб. дождь н/о +26.3 +26.0 98 +39 +39 очень
душно
1007.4 1006.5
23 22.08 ЮЗ 2 7000 м дождь н/о +26.0 +25.7 98 +38 +38 очень
душно
1007.6 1006.7
00 23.08 ЮЗ 5 9000 м слаб. дождь н/о +25.9 +25.4 97 +38 +38 очень
душно
1008.4 1007.5 +25.2 14
01 23.08 СЗ 3 10 км слаб. дождь н/о +25.2 +23.1 88 +34 +34 очень
душно
1008.6 1007.7
02 23.08 СЗ 1 8000 м слаб. дождь н/о +24.5 +23.5 94 +33 +33 очень
душно
1008.4 1007.5
03 23.08 СЗ 2 15 км слаб. дождь н/о +24.9 +23.0 89 +33 +33 очень
душно
1008.2 1007.3
04 23.08 С 5 1500 м дождь н/о +22.9 +22.6 98 +31 +31 очень
душно
1009.2 1008.3
05 23.08 С 5 20 км слаб. дождь н/о +24.2 +21.7 86 +31 +31 очень
душно
1008.5 1007.6
06 23.08 С 3 8000 м слаб. дождь н/о +23.9 +21.8 88 +31 +31 очень
душно
1008.3 1007.4 13
07 23.08 СЗ 3 20 км в посл. час дождь н/о +24.0 +22.4 91 +31 +31 очень
душно
1008.3 1007.4
08 23.08 З 1 20 км н/о +24.4 +22.3 88 +32 +32 очень
душно
1008.1 1007.2
09 23.08 СЗ 2 17 км слаб. дождь н/о +24.3 +22.6 90 +32 +32 очень
душно
1008.6 1007.7
10 23.08 С 1 6000 м слаб. дождь н/о +23.3 +22.6 96 +32 +32 очень
душно
1009.1 1008.2
11 23.08 СЗ 1 13 км в посл. час дождь н/о +23.4 +23.1 98 +33 +33 очень
душно
1009.5 1008.6
13 23.08 СЗ 3 17 км в посл. час дождь н/о +24.3 +23.3 94 +33 +33 очень
душно
1009.6 1008.7
14 23.08 С 3 5000 м дымка н/о +24.0 +23.2 95 +32 +32 очень
душно
1009.5 1008.6
15 23.08 С 2 7000 м в посл. час дождь н/о +24.0 +22.8 93 +32 +32 очень
душно
1009.8 1008.9
16 23.08 СЗ 1 8000 м слаб. дождь н/о +23.9 +22.5 92 +31 +31 очень
душно
1009.3 1008.4
17 23.08 З 2 5000 м слаб. дождь н/о +23.7 +23.0 96 +31 +31 очень
душно
1009.5 1008.6
18 23.08 СЗ 2 5000 м в посл. час дождь н/о +23.8 +22.8 94 +31 +31 очень
душно
1009.6 1008.7 0.5
19 23.08 З 1 5000 м слаб. дождь н/о +23.4 +22.7 96 +33 +33 очень
душно
1009.4 1008.5
20 23.08 З 2 4200 м слаб. дождь н/о +23.6 +22.9 96 +31 +31 очень
душно
1010.1 1009.2
21 23.08 ЮВ 1 2000 м слаб. дождь н/о +23.3 +23.1 99 +33 +33 очень
душно
1010.1 1009.2
22 23.08 ЮЗ 2 6000 м слаб. дождь н/о +23.8 +23.3 97 +32 +32 очень
душно
1010.5 1009.6
23 23.08 ЮЗ 2 12 км в посл. час дождь н/о +24.7 +23.0 90 +33 +33 очень
душно
1010.8 1009.9
00 24.08 ЮЗ 2 14 км {дождь} н/о +25.6 +23.1 86 +34 +34 очень
душно
1010.8 1009.9 +23.2 1
02 24.08 З 3 20 км н/о +27.8 +22.3 72 +36 +36 очень
душно
1010.4 1009.5
03 24.08 ЮЗ 3 20 км н/о +28.6 +21.9 67 +37 +37 очень
душно
1010.0 1009.1
04 24.08 Ю 3 20 км н/о +29.0 +24.6 77 +41 +41 опасность
перегрева
1009.5 1008.6
05 24.08 Ю 5 20 км н/о +27.9 +23.9 79 +39 +39 очень
душно
1009.6 1008.7
06 24.08 Ю 5 20 км н/о +27.9 +24.3 81 +39 +39 очень
душно
1009.5 1008.6
08 24.08 Ю 3 20 км н/о +27.8 +24.0 80 +39 +39 очень
душно
1009.3 1008.4
09 24.08 Ю 3 20 км н/о +26.9 +23.8 83 +37 +37 очень
душно
1009.5 1008.6
10 24.08 Ю 2 20 км слаб. дождь н/о +26.2 +23.5 85 +36 +36 очень
душно
1009.9 1009.0
11 24.08 З 4 20 км в посл. час дождь н/о +27.4 +21.2 69 +35 +35 очень
душно
1010.0 1009.1
12 24.08 З 3 20 км {дождь} н/о +27.0 +21.1 70 +34 +34 очень
душно
1010.0 1009.1 +29.9 0.0
13 24.08 З 5 20 км слаб. дождь н/о +26.7 +20.5 69 +33 +33 очень
душно
1010.1 1009.2
14 24.08 З 4 20 км в посл. час дождь н/о +26.4 +21.0 72 +33 +33 очень
душно
1010.2 1009.3
15 24.08 З 4 20 км в посл. час дождь н/о +26.2 +20.8 72 +33 +33 очень
душно
1009.8 1008.9
16 24.08 З 2 8000 м слаб. дождь н/о +24.5 +22.2 87 +32 +32 очень
душно
1009.6 1008.7
18 24.08 З 3 20 км в посл. час дождь н/о +24.6 +19.7 74 +30 +30 очень
душно
1009.8 1008.9 0.0
19 24.08 З 4 20 км н/о +24.9 +19.7 73 +30 +30 душно 1010.2 1009.3
20 24.08 З 3 20 км н/о +24.8 +20.3 76 +31 +31 очень
душно
1010.4 1009.5
21 24.08 З 4 20 км н/о +24.8 +20.1 75 +30 +30 душно 1011.0 1010.1
22 24.08 З 5 19 км н/о +25.6 +21.1 76 +32 +32 очень
душно
1010.9 1010.0
23 24.08 З 4 20 км н/о +26.2 +21.2 74 +33 +33 очень
душно
1011.3 1010.4
00 25.08 З 5 19 км н/о +27.0 +21.8 73 +35 +35 очень
душно
1011.2 1010.3 +24.2 0.0
01 25.08 З 4 18 км н/о +27.8 +21.8 70 +36 +36 очень
душно
1011.2 1010.3
02 25.08 З 5 20 км н/о +28.4 +21.4 66 +36 +36 очень
душно
1011.0 1010.1
03 25.08 З 5 20 км н/о +29.8 +21.7 62 +38 +38 очень
душно
1010.5 1009.6
04 25.08 З 5 20 км н/о +30.3 +21.1 58 +38 +38 очень
душно
1010.3 1009.4
05 25.08 З 5 20 км н/о +30.9 +20.2 53 +37 +37 очень
душно
1009.9 1009.0
07 25.08 З 5 20 км н/о +30.3 +20.0 54 +37 +37 очень
душно
1010.1 1009.2
08 25.08 З 4 20 км н/о +29.8 +20.7 58 +37 +37 очень
душно
1010.3 1009.4
09 25.08 З 2 20 км н/о +28.5 +21.3 65 +36 +36 очень
душно
1010.1 1009.2
10 25.08 СЗ 3 20 км н/о +28.3 +20.3 62 +35 +35 очень
душно
1010.5 1009.6
11 25.08 СЗ 3 20 км н/о +27.3 +19.7 63 +33 +33 очень
душно
1011.3 1010.4
12 25.08 СЗ 4 20 км н/о +26.8 +19.4 64 +32 +32 очень
душно
1011.6 1010.7 +31.5
13 25.08 СЗ 5 20 км н/о +26.3 +19.9 68 +32 +32 очень
душно
1011.6 1010.7
14 25.08 СЗ 4 20 км н/о +26.0 +20.6 72 +32 +32 очень
душно
1011.5 1010.6
15 25.08 З 3 20 км н/о +25.8 +20.4 72 +32 +32 очень
душно
1011.4 1010.5
17 25.08 СЗ 4 20 км н/о +25.3 +19.7 71 +31 +31 очень
душно
1011.4 1010.5
18 25.08 СЗ 4 20 км н/о +24.8 +19.6 73 +30 +30 душно 1011.5 1010.6
20 25.08 СЗ 2 20 км н/о +23.9 +19.6 77 +29 +29 душно 1011.9 1011.0

 

Местоположение метеостанции Ирако (Япония): широта 34.63 долгота 137.10 высота над уровнем моря 8 м.

В архиве по умолчанию представлена погода в Ирако за последнюю неделю. Архивные данные за месяц целиком и за предыдущие месяцы, начиная с января 2011 года, Вы можете получить, выбрав интересующий диапазон дат из раскрывающегося списка и нажав кнопку "Ввод!".


*Определитесь, кто Вы:
робот инопланетянин человек

Внимание! Время в таблицах - всемирное. Для получения местного времени необходимо прибавить поправку, которая равна 9 ч.

Смотрите также архив погоды в соседних городах и на ближайших метеорологических станциях:

Погода в Цу (Япония) (55 км)
Погода в Хамамацу (Япония) (57 км)
Погода в Йоккаити (Япония) (58 км)
Погода в Нагоя (Япония) (61 км)
Погода в Уэно (Япония) (88 км)
Погода в Гифу (Япония) (91 км)
Погода в Омаэдзаки (Япония) (102 км)
Погода в Овасе (Япония) (103 км)
Погода в Хиконе (Япония) (106 км)
Погода в Наре (Япония) (116 км)

Пояснения к столбцам:

Ветер - указаны скорость ветра в м/с - средняя за 10 мин, порывы в срок и между сроками (в фигурных скобках) и направление, откуда дует ветер: С - северный, СВ - северо-восточный, В - восточный, ЮВ - юго-восточный, Ю - южный, ЮЗ - юго-западный, З - западный, СЗ - северо-западный.
Видимость - горизонтальная дальность видимости в метрах или километрах. При видимости от 1 до 10 км при отсутствии осадков обычно наблюдается дымка, при ухудшении видимости до 1 км и менее - туман. В сухую погоду видимость может ухудшаться дымом, пылью или мглою.
Явления - указаны атмосферные явления, наблюдавшиеся в срок или в последний час перед сроком; фигурными скобками обозначены явления, наблюдавшиеся между сроками (за 1-3 часа до срока); квадратными скобками обозначены град или гололедные отложения с указанием их диаметра в мм.
Облачность - указаны через наклонную черту общая и нижняя облачность в баллах и высота нижней границы облаков в метрах; квадратными скобками обозначены формы облаков: Ci - перистые, Cs - перисто-слоистые, Cc - перисто-кучевые, Ac - высококучевые, As - высокослоистые, Sc - слоисто-кучевые, Ns - слоисто-дождевые, Cu - кучевые, Cb - кучево-дождевые. Подробнее классификацию облаков см. в Атласе облаков (PDF).
T - Температура воздуха - температура, измеренная на высоте 2 м над землей.
Td - Температура точки росы - температура, при понижении до которой содержащийся в воздухе водяной пар достигнет насыщения.
f - Относительная влажность воздуха - влажноcть воздуха, измеренная на высоте 2 м над землей.
Te - Эффективная температура - температура, которую ощущает одетый по сезону человек в тени. Характеристика душности погоды. При расчете учитывается влияние влажности воздуха и скорости ветра на теплоощущения человека.
Tes - Эффективная температура на солнце - температура, которую ощущает человек, с поправкой на солнечный нагрев. Характеристика знойности погоды. Зависит от высоты солнца над горизонтом, облачности и скорости ветра. Ночью, в пасмурную погоду, а также при ветре 12 м/с и более поправка равна нулю.
P - Атмосферное давление - приведенное к уровню моря атмосферное давление.
Po - Атмосферное давление - измеренное на уровне метеостанции атмосферное давление.
Tmin - Минимальная температура - минимум температуры воздуха на высоте 2 м над землей.
Tmax - Максимальная температура - максимум температуры воздуха на высоте 2 м над землей.
R - Количество осадков - Количество выпавших осадков за период времени, мм. При наведении курсора мыши на число - период времени, за который выпало указанное количество осадков.
R24 - Количество осадков - Количество выпавших осадков за 24 часа, мм.
S - Снежный покров - Высота снежного покрова, см. При наведении курсора мыши на число - состояние снежного покрова и степень покрытия местности в баллах.